Home   Weather   Creston   Past weeks

Flag for Canada Past Weather in Creston, British Columbia, Canada — Yesterday and Last 2 Weeks

Now
31 °F

Chilly.


Feels Like: 31 °F
Forecast: N/A
Wind: 1 mph from Northeast

Location: Creston

Current Time: Jan 21, 2017 at 8:30:59 am

Latest Report: Jan 21, 2017 at 8:00 am


Visibility: N/A

Pressure: 29.50 "Hg (27.30 "Hg at 617m altitude)

Humidity: 85%

Dew Point: 27 °F

Location of CrestonLocation

Past Weather in Creston — Graph

°F

Creston Temperature Yesterday

Maximum temperature yesterday: 45 °F (at 2:00 pm)
Minimum temperature yesterday: 31 °F (at 8:00 pm)
Average temperature yesterday: 36 °F

High & Low Weather Summary for the Past Weeks

 TemperatureHumidityPressure
High45 °F (Jan 20, 2:00 pm)100% (Jan 9, 6:00 am)30.75 "Hg (Jan 9, 6:00 am)
Low3 °F (Jan 12, 6:00 am)47% (Jan 11, 12:00 pm)29.39 "Hg (Jan 20, 6:00 pm)
Average21 °F81%30.11 "Hg
* Reported Jan 6 7:00 am — Jan 21 7:00 am, Creston, Weather by CustomWeather, © 2017

Note: Actual official high and low records may vary slightly from our data, if they occured in-between our weather recording intervals... More about our weather records

Advertising

Creston Weather History for the Previous 24 Hours

Scroll right to see more
 ConditionsComfort  
Time TempWeatherWind HumidityBarometerVisibility
7:00 am
Sat, Jan 21
32 °FChilly.1 mph82%29.47 "HgN/A
6:00 am31 °FChilly.2 mph87%29.46 "HgN/A
5:00 am32 °FChilly.2 mph86%29.44 "HgN/A
4:00 am31 °FChilly.5 mph92%29.43 "HgN/A
3:00 am32 °FChilly.2 mph90%29.43 "HgN/A
2:00 am32 °FChilly.1 mph89%29.40 "HgN/A
1:00 am32 °FChilly.1 mph89%29.41 "HgN/A
12:00 am32 °FChilly.2 mph91%29.42 "HgN/A
11:00 pm
Fri, Jan 20
35 °FChilly.1 mph81%29.41 "HgN/A
10:00 pm32 °FChilly.1 mph95%29.41 "HgN/A
9:00 pm34 °FChilly.3 mph91%29.40 "HgN/A
8:00 pm31 °FChilly.1 mph100%29.40 "HgN/A
7:00 pm33 °FChilly.2 mph95%29.39 "HgN/A
6:00 pm34 °FChilly.2 mph92%29.39 "HgN/A
5:00 pm35 °FChilly.1 mph88%29.40 "HgN/A
4:00 pm38 °FChilly.6 mph78%29.40 "HgN/A
3:00 pm41 °FQuite cool.3 mph74%29.40 "HgN/A
2:00 pm45 °FCool.1 mph64%29.40 "HgN/A
1:00 pm41 °FQuite cool.1 mph68%29.43 "HgN/A
12:00 pm36 °FChilly.3 mph88%29.46 "HgN/A
11:00 am36 °FChilly.3 mph90%29.49 "HgN/A
10:00 am34 °FChilly.1 mph92%29.51 "HgN/A
9:00 am34 °FChilly.3 mph90%29.52 "HgN/A
8:00 am33 °FChilly.3 mph96%29.53 "HgN/A
Weather by CustomWeather, © 2017

See weather overviewHow to use our weather pages